Regional Weather Roundup
Issued by NWS

Home | Current Version | Previous Version | Graphics & Text | Print | Product List | Glossary Off
Versions: 1 2 3 4 5 6 7 8 9 10 11 12 13 14 15 16 17 18 19 20 21 22 23 24 25 26 27 28 29 30 31 32 33 34 35 36 37 38 39 40 41 42 43 44 45 46 47 48 49 50

000
ASUS43 KMPX 030201
RWRMN
WEATHER ROUNDUP FOR MINNESOTA
NATIONAL WEATHER SERVICE TWIN CITIES/CHANHASSEN MN
900 PM CDT TUE SEP 02 2014


NOTE: "FAIR" INDICATES FEW OR NO CLOUDS BELOW 12,000 FEET WITH NO
SIGNIFICANT WEATHER AND/OR OBSTRUCTIONS TO VISIBILITY. N/A MEANS
CURRENT SKY AND/OR WEATHER CONDITIONS ARE NOT AVAILABLE.

MNZ060>063-068>070-030300-
   Twin Cities Metro

CITY           SKY/WX    TMP DP  RH WIND       PRES   REMARKS
TWIN CITIES    PTCLDY    72  55  55 SW7       29.87S
ST PAUL        PTCLDY    66  57  72 S6        29.87S
CRYSTAL        PTCLDY    70  54  56 S5        29.85S
LAKEVILLE      CLEAR     63  57  82 CALM      29.88S
EDEN PRAIRIE   CLEAR     67  57  70 SW6       29.86S
SOUTH ST PAUL  PTCLDY    69  57  65 CALM      29.87S
LAKE ELMO      FAIR      63  57  82 CALM      29.88S
$$
MNZ001>005-007-008-013>017-022>024-027-028-030300-
   Northwest Minnesota

CITY           SKY/WX    TMP DP  RH WIND       PRES   REMARKS
BEMIDJI        MOCLDY    64  55  72 SW9       29.75S
HALLOCK        CLEAR     57  55  94 CALM      29.68R
ROSEAU         PTCLDY    57  52  82 S3        29.69S
WARROAD        CLOUDY    57  54  88 S3        29.69S
THIEF RVR FALL MOCLDY    63  54  72 NE7       29.72R
CROOKSTON      CLEAR     64  54  68 SW8       29.71R
FOSSTON        PTCLDY    57  52  82 SW6       29.75R
DETROIT LAKES  CLEAR     68  55  64 SW8       29.78S
MOORHEAD       PTCLDY    70  61  73 SW7       29.74S
PARK RAPIDS    MOCLDY    66  56  70 S12       29.77S
MAHNOMEN       FAIR      63  56  78 S8        29.75R
$$
MNZ006-009>011-018-025>026-030300-
   North Central Minnesota

CITY           SKY/WX    TMP DP  RH WIND       PRES   REMARKS
BAUDETTE       LGT RAIN  57  53  86 S12       29.70F
FLAG ISLAND    PTCLDY    61  55  82 S5        29.68S
INTL FALLS     TSTM      57  55  93 W15       29.80R VSB 3/4
WASKISH        LGT RAIN  55  54  94 E3        29.78S
BIG FORK       LGT RAIN  61  57  88 SE3       29.76R
LONGVILLE      CLOUDY    64  55  72 S6        29.77F
GRAND RAPIDS   MOCLDY    63  52  67 S8        29.78S
CRANE LAKE     PTCLDY    55  54  94 CALM      29.77F
ORR            PTCLDY    57  52  82 SE3       29.74F
COOK           PTCLDY    55  54  94 SE2       29.78S
WALKER         LGT RAIN  64  56  75 SW7G25    29.78R
$$
MNZ012-019>021-037-030300-
   Northeast Minnesota

CITY           SKY/WX    TMP DP  RH WIND       PRES   REMARKS
DULUTH         PTCLDY    59  54  83 SE10      29.82S
ELY            PTCLDY    54  52  94 S3        29.80S
HIBBING        PTCLDY    56  53  90 SE5       29.79F
EVELETH        CLEAR     52  52 100 CALM      29.81S FOG
DULUTH HARBOR  CLEAR     63  57  82 E5        29.82F
TWO HARBORS    CLEAR     54  48  82 W3        29.81R
SILVER BAY     CLEAR     52  52 100 CALM      29.80R
GRAND MARAIS     N/A     57  53  86 CALM      29.79R
G MARAIS ARPRT PTCLDY    54  46  76 W3        29.83R
$$
MNZ029>031-032-039>041-046>048-054>057-064-030300-
   West Central Minnesota

CITY           SKY/WX    TMP DP  RH WIND       PRES   REMARKS
FERGUS FALLS   CLEAR     66  54  63 S10       29.78R
WHEATON        CLEAR     64  55  72 S10       29.80S
MORRIS         CLEAR     64  57  77 S8        29.82R
ALEXANDRIA     CLEAR     67  56  67 S9        29.84R
ELBOW LAKE     FAIR      64  58  81 S10       29.80R
WADENA         PTCLDY    61  55  82 S5        29.80R
GLENWOOD       CLEAR     63  57  82 S8        29.85R
APPLETON       PTCLDY    70  55  60 S7        29.83S
BENSON         CLEAR     63  57  82 SW7       29.84S
ORTONVILLE     PTCLDY    64  55  72 S5        29.82S
MADISON        PTCLDY    66  57  72 S8        29.84S
WILLMAR        FAIR      64  55  72 S3        29.87S
$$
MNZ033>034-036-042>043-049>051-058-059-030300-
   Central Minnesota

CITY           SKY/WX    TMP DP  RH WIND       PRES   REMARKS
ST CLOUD       PTCLDY    66  58  75 S5        29.84S
SAUK CENTRE    FAIR      63  57  82 S7        29.84S
PAYNESVILLE    RAIN      64  55  75 S6        29.86R
AITKIN         PTCLDY    66  57  72 S7        29.80S
PINE RIVER     PTCLDY    63  55  77 S5        29.83R
BRAINERD       CLEAR     64  55  72 S10       29.81S
STAPLES        CLEAR     63  54  72 S8        29.81R
LONG PRAIRIE   FAIR      64  55  72 S7        29.84R
LITTLE FALLS   CLEAR     64  54  68 S3        29.83S
LITCHFIELD     CLEAR     66  61  82 CALM      29.87S
BUFFALO        PTCLDY    68  56  65 S3        29.87S
MAPLE LAKE     PTCLDY    67  59  75 S3        29.87S
$$
MNZ037-044-045-052-053-030300-
   East Central Minnesota

CITY           SKY/WX    TMP DP  RH WIND       PRES   REMARKS
PRINCETON      PTCLDY    66  55  68 S3        29.85S
MORA           CLEAR     64  54  68 CALM      29.86R
CAMBRIDGE      PTCLDY    68  54  60 S6        29.84R
RUSH CITY      CLEAR     65  54  65 S3        29.85S
MOOSE LAKE     CLEAR     57  54  88 CALM      29.81S
HINCKLEY       FAIR      61  55  82 CALM      29.84S
CLOQUET        CLEAR     63  52  67 S3        29.82S
MCGREGOR       CLEAR     63  55  77 S6        29.81S
$$
MNZ071>073-080-081-089-090-097-098-030300-
   Southwest Minnesota

CITY           SKY/WX    TMP DP  RH WIND       PRES   REMARKS
MONTEVIDEO     CLEAR     64  55  72 SW6       29.86S
GRANITE FALLS  CLEAR     61  56  84 S7        29.88R
CANBY          PTCLDY    64  56  77 S5        29.87S
MARSHALL       PTCLDY    64  54  68 SW8       29.86S
REDWOOD FALLS  CLEAR     67  59  75 S8        29.87S
OLIVIA         CLEAR     68  59  73 S7        29.87R
PIPESTONE      PTCLDY    61  57  88 SW5       29.90S
WINDOM         CLEAR     66  57  72 S3        29.91S
WORTHINGTON    CLEAR     63  57  82 S6        29.93S
JACKSON        CLEAR     63  55  77 S5        29.92S
TRACY          CLEAR     66  58  76 CALM      29.89S
SLAYTON        PTCLDY    62  58  87 CALM      29.92R
$$
MNZ065>067-074>077-082>085-091>093-030300-
   South Central Minnesota

CITY           SKY/WX    TMP DP  RH WIND       PRES   REMARKS
MANKATO        CLEAR     66  54  63 S5        29.89S
NEW ULM        CLEAR     64  61  88 SW6       29.89R
ST JAMES       CLEAR     66  57  72 S3        29.91R
FAIRMONT       CLEAR     63  54  72 S3        29.91S
GLENCOE        CLEAR     67  57  71 SW3       29.87S
FARIBAULT      CLEAR     64  57  77 CALM      29.90R
OWATONNA       CLEAR     64  57  77 S7        29.91R
WASECA         CLEAR     59  54  82 S5        29.92S
ALBERT LEA     CLEAR     64  59  82 CALM      29.92R
$$
MNZ078>079-086>088-094>096-030300-
   Southeast Minnesota

CITY           SKY/WX    TMP DP  RH WIND       PRES   REMARKS
ROCHESTER      CLEAR     63  58  83 SW5       29.93R
RED WING       PTCLDY    63  59  88 CALM      29.87S
STANTON        CLEAR     63  58  85 CALM      29.88R
DODGE CENTER   CLEAR     64  59  82 SW5       29.91S
WINONA         CLEAR     66  63  88 CALM      29.90R
AUSTIN         CLEAR     66  57  72 CALM      29.92S
PRESTON        CLEAR     64  61  93 CALM      29.93R
$$
ABBREVIATIONS USED IN REMARKS
   TC - TEMPERATURES IN CELSIUS
  WCI - WIND CHILL INDEX
   HX - HEAT INDEX
  VSB - VISIBILITY
$$



USA.gov is the U.S. government's official web portal to all federal, state and local government web resources and services.